Weather History for Morgantown, WV

Change the Weather History Date:

Saturday, September 28, 2013

  Actual Average Record
Temperature  
Mean Temperature 63 °F 60 °F  
Max Temperature 73 °F 71 °F 90 °F (1959)
Min Temperature 52 °F 50 °F 34 °F (1957)
Degree Days  
Heating Degree Days 2 6  
Month to date heating degree days 75 75  
Since 1 July heating degree days 84 86  
Cooling Degree Days 0 1  
Month to date cooling degree days 84 89  
Year to date cooling degree days 870 798  
Growing Degree Days 12 (Base 50)    
Moisture  
Dew Point 50 °F    
Average Humidity 68    
Maximum Humidity 89    
Minimum Humidity 46    
Precipitation  
Precipitation 0.00 in 0.11 in 2.65 in (1967)
Month to date precipitation 1.99 3.00  
Year to date precipitation 31.18 32.47  
Sea Level Pressure  
Sea Level Pressure 30.21 in    
Wind  
Wind Speed 4 mph (ESE)    
Max Wind Speed 13 mph    
Max Gust Speed 20 mph    
Visibility 10 miles    
Events      
T = Trace of Precipitation, MM = Missing Value Source: NWS Daily Summary

Daily Weather History Graph

Daily Weather History Graph

Search for Another Location

Airport:

Trip Planner

Search our weather history database for the weather conditions in past years. The results will help you decide how hot, cold, wet, or windy it might be!

Date:

Astronomy

Sep. 28, 2013 Rise Set
Actual Time 7:13 AM EDT 7:06 PM EDT
Civil Twilight 6:46 AM EDT 7:33 PM EDT
Nautical Twilight 6:15 AM EDT 8:04 PM EDT
Astronomical Twilight 5:43 AM EDT 8:36 PM EDT
Moon 1:00 AM EDT (9/28) 3:23 PM EDT (9/28)
Length of Visible Light 12h 47m
Length of Day
11h 53m
Last Quarter, 36% of the Moon is Illuminated
Sep 28
Last Quarter
Oct 4
New
Oct 11
First Quarter
Oct 18
Full
Oct 26
Last Quarter

Hourly Weather History & Observations

Time (EDT) Temp. Dew Point Humidity Pressure Visibility Wind Dir Wind Speed Gust Speed Precip Events Conditions
12:53 AM 60.1 °F 50.0 °F 69% 30.20 in 10.0 mi East 4.6 mph - N/A   Clear
1:53 AM 57.9 °F 50.0 °F 75% 30.20 in 10.0 mi Calm Calm - N/A   Clear
2:53 AM 57.9 °F 50.0 °F 75% 30.19 in 10.0 mi SE 3.5 mph - N/A   Clear
3:53 AM 57.9 °F 50.0 °F 75% 30.19 in 10.0 mi ESE 5.8 mph - N/A   Clear
4:53 AM 57.0 °F 50.0 °F 77% 30.21 in 10.0 mi Calm Calm - N/A   Clear
5:53 AM 55.9 °F 50.0 °F 80% 30.22 in 10.0 mi Calm Calm - N/A   Clear
6:53 AM 52.0 °F 48.9 °F 89% 30.24 in 10.0 mi Calm Calm - N/A   Clear
7:53 AM 55.0 °F 51.1 °F 86% 30.25 in 10.0 mi Calm Calm - N/A   Clear
8:53 AM 61.0 °F 52.0 °F 72% 30.26 in 10.0 mi Calm Calm - N/A   Clear
9:53 AM 63.0 °F 52.0 °F 67% 30.27 in 10.0 mi Calm Calm - N/A   Clear
10:53 AM 66.0 °F 52.0 °F 60% 30.27 in 10.0 mi SSE 6.9 mph - N/A   Clear
11:53 AM 68.0 °F 53.1 °F 59% 30.26 in 10.0 mi East 5.8 mph - N/A   Mostly Cloudy
12:53 PM 70.0 °F 52.0 °F 53% 30.25 in 10.0 mi East 4.6 mph - N/A   Overcast
1:53 PM 70.0 °F 50.0 °F 49% 30.22 in 10.0 mi Calm Calm - N/A   Scattered Clouds
2:53 PM 73.0 °F 51.1 °F 46% 30.20 in 10.0 mi East 4.6 mph - N/A   Mostly Cloudy
3:53 PM 71.1 °F 50.0 °F 47% 30.19 in 10.0 mi ESE 4.6 mph - N/A   Mostly Cloudy
4:53 PM 70.0 °F 51.1 °F 51% 30.17 in 10.0 mi ESE 6.9 mph - N/A   Scattered Clouds
5:53 PM 69.1 °F 52.0 °F 54% 30.18 in 10.0 mi ESE 5.8 mph - N/A   Partly Cloudy
6:53 PM 66.0 °F 51.1 °F 59% 30.18 in 10.0 mi East 5.8 mph - N/A   Clear
7:53 PM 63.0 °F 48.9 °F 60% 30.18 in 10.0 mi East 10.4 mph - N/A   Clear
8:53 PM 60.1 °F 48.0 °F 64% 30.18 in 10.0 mi ESE 9.2 mph 17.3 mph N/A   Clear
9:53 PM 59.0 °F 48.0 °F 67% 30.18 in 10.0 mi Variable 3.5 mph - N/A   Clear
10:53 PM 57.9 °F 48.0 °F 70% 30.19 in 10.0 mi SE 5.8 mph - N/A   Clear
11:53 PM 55.9 °F 48.0 °F 75% 30.17 in 10.0 mi ESE 6.9 mph - N/A   Clear